User: anonymous   Login
Location: Mascot Post Office (historical)
(40.2645°N, 99.5462°W)
Time: 00:24:52
(UTC+00:00)
Language:

Cosmos 1452 Rocket - Orbit

View from above orbital plane
View from above orbital plane
View from above satellite
View from above satellite

Ground track
Ground track

The orbit data is extracted from the following two-line orbital elements,

1 13992U 83031B   20273.49433429 +.00000045 +00000-0 +24364-4 0  9993
2 13992 074.0535 325.4396 0005166 354.7965 005.3133 14.36198531960831
Epoch (UTC): 29 September 2020 11:51:50
Eccentricity: 0.0005166
inclination: 74.0535°
perigee height: 767 km
apogee height: 775 km
right ascension of ascending node: 325.4396°
argument of perigee: 354.7965°
revolutions per day: 14.36198531
mean anomaly at epoch: 5.3133°
orbit number at epoch: 96083

The dashed part of the orbit path shows where the satellite is in the earth's shadow,  

DLR